Hourly Weather Alisovo

Today, 26 November, Thursday

Time Temperature Precipitation Wind Pressure Humidity
00:00 0°C° 0 mm 1 mps 746 mmHg 88%
01:00 0°C° 0 mm 1 mps 746 mmHg 89%
02:00 0°C° 0 mm 1 mps 747 mmHg 93%
03:00 0°C° 0 mm 1 mps 747 mmHg 93%
04:00 0°C° 0 mm 1 mps 747 mmHg 93%
05:00 0°C° 0 mm 1 mps 747 mmHg 93%
06:00 +1°C° 0 mm 1 mps 747 mmHg 92%
07:00 +1°C° 0 mm 1 mps 747 mmHg 90%
08:00 +1°C° 0 mm 1 mps 748 mmHg 88%
09:00 +1°C° 0 mm 1 mps 747 mmHg 84%
10:00 +1°C° 0 mm 2 mps 747 mmHg 80%
11:00 +1°C° 0 mm 2 mps 747 mmHg 76%
12:00 0°C° 0.1 mm 3 mps 747 mmHg 81%
13:00 0°C° 0.1 mm 3 mps 747 mmHg 87%
14:00 0°C° 0 mm 3 mps 746 mmHg 93%
15:00 0°C° 0.2 mm 3 mps 746 mmHg 94%
16:00 -1°C° 0.2 mm 4 mps 746 mmHg 95%
17:00 -1°C° 0.2 mm 4 mps 745 mmHg 96%
18:00 0°C° 0.1 mm 4 mps 745 mmHg 97%
19:00 0°C° 0.1 mm 4 mps 745 mmHg 97%
20:00 0°C° 0.1 mm 4 mps 745 mmHg 97%
21:00 0°C° 0 mm 5 mps 745 mmHg 97%
22:00 0°C° 0 mm 5 mps 744 mmHg 97%
23:00 0°C° 0 mm 5 mps 744 mmHg 97%

Tomorrow, 27 November, Friday

Time Temperature Precipitation Wind Pressure Humidity
00:00 0°C° 0 mm 5 mps 744 mmHg 96%
01:00 +1°C° 0 mm 5 mps 744 mmHg 95%
02:00 +1°C° 0 mm 5 mps 743 mmHg 95%
03:00 +1°C° 0 mm 6 mps 743 mmHg 94%
04:00 -1°C° 0 mm 6 mps 743 mmHg 93%
05:00 -1°C° 0 mm 6 mps 742 mmHg 92%
06:00 -1°C° 0 mm 6 mps 742 mmHg 91%
07:00 -2°C° 0 mm 6 mps 742 mmHg 91%
08:00 -1°C° 0 mm 5 mps 742 mmHg 90%
09:00 -2°C° 0 mm 6 mps 741 mmHg 88%
10:00 -2°C° 0 mm 6 mps 741 mmHg 86%
11:00 -1°C° 0 mm 7 mps 741 mmHg 84%
12:00 -1°C° 0 mm 6 mps 741 mmHg 84%
13:00 -2°C° 0 mm 6 mps 741 mmHg 83%
14:00 -1°C° 0 mm 5 mps 741 mmHg 83%
15:00 -1°C° 0 mm 5 mps 741 mmHg 85%
16:00 -1°C° 0 mm 5 mps 741 mmHg 87%
17:00 -1°C° 0 mm 5 mps 741 mmHg 89%
18:00 -1°C° 0 mm 5 mps 741 mmHg 89%
19:00 -1°C° 0 mm 5 mps 741 mmHg 90%
20:00 -1°C° 0 mm 5 mps 741 mmHg 90%
21:00 -1°C° 0 mm 4 mps 741 mmHg 92%
22:00 -1°C° 0 mm 4 mps 742 mmHg 93%
23:00 0°C° 0 mm 3 mps 742 mmHg 95%

Day after tomorrow, 28 November, Saturday

Time Temperature Precipitation Wind Pressure Humidity
00:00 0°C° 0 mm 3 mps 742 mmHg 95%
01:00 0°C° 0 mm 3 mps 742 mmHg 95%
02:00 0°C° 0 mm 3 mps 743 mmHg 96%
03:00 0°C° 0 mm 3 mps 743 mmHg 96%
04:00 0°C° 0 mm 3 mps 743 mmHg 97%
05:00 +1°C° 0 mm 2 mps 743 mmHg 97%
06:00 +1°C° 0 mm 2 mps 744 mmHg 97%
07:00 +1°C° 0 mm 2 mps 744 mmHg 97%
08:00 +2°C° 0 mm 2 mps 745 mmHg 97%
09:00 +2°C° 0 mm 2 mps 745 mmHg 95%
10:00 +2°C° 0 mm 2 mps 745 mmHg 93%
11:00 +3°C° 0 mm 1 mps 746 mmHg 91%
12:00 +3°C° 0 mm 1 mps 746 mmHg 90%
13:00 +4°C° 0 mm 1 mps 746 mmHg 90%
14:00 +4°C° 0 mm 1 mps 747 mmHg 89%
15:00 +3°C° 0 mm 1 mps 747 mmHg 92%
16:00 +2°C° 0 mm 2 mps 747 mmHg 94%
17:00 +2°C° 0 mm 2 mps 747 mmHg 97%
18:00 +1°C° 0.2 mm 3 mps 747 mmHg 96%
19:00 +1°C° 0.2 mm 3 mps 747 mmHg 96%
20:00 +1°C° 0.2 mm 3 mps 747 mmHg 95%
21:00 +1°C° 0.3 mm 3 mps 747 mmHg 96%
22:00 +1°C° 0.3 mm 3 mps 747 mmHg 97%
23:00 +2°C° 0.3 mm 3 mps 747 mmHg 97%

29 November, Sunday

Time Temperature Precipitation Wind Pressure Humidity
00:00 +2°C° 0.6 mm 3 mps 747 mmHg 97%
01:00 +1°C° 0.6 mm 4 mps 747 mmHg 97%
02:00 +1°C° 0.6 mm 4 mps 748 mmHg 97%
03:00 +1°C° 0.3 mm 5 mps 747 mmHg 95%
04:00 +1°C° 0.3 mm 5 mps 747 mmHg 94%
05:00 +1°C° 0.3 mm 6 mps 747 mmHg 93%
06:00 +1°C° 0 mm 6 mps 747 mmHg 91%
07:00 -1°C° 0 mm 6 mps 748 mmHg 90%
08:00 -1°C° 0 mm 7 mps 748 mmHg 88%
09:00 -1°C° 0 mm 7 mps 748 mmHg 90%
10:00 -1°C° 0 mm 7 mps 748 mmHg 91%
11:00 -1°C° 0 mm 7 mps 748 mmHg 93%
12:00 0°C° 0 mm 7 mps 748 mmHg 92%
13:00 0°C° 0 mm 7 mps 748 mmHg 92%
14:00 0°C° 0 mm 7 mps 748 mmHg 91%
15:00 +2°C° 0 mm 7 mps 748 mmHg 91%
16:00 +2°C° 0 mm 7 mps 748 mmHg 90%
17:00 +2°C° 0 mm 7 mps 748 mmHg 89%
18:00 +2°C° 0 mm 7 mps 749 mmHg 89%
19:00 +3°C° 0 mm 7 mps 749 mmHg 88%
20:00 +3°C° 0 mm 7 mps 749 mmHg 88%
21:00 +3°C° 0 mm 7 mps 749 mmHg 88%
22:00 +2°C° 0 mm 7 mps 749 mmHg 87%
23:00 +2°C° 0 mm 7 mps 749 mmHg 87%

30 November, Monday

Time Temperature Precipitation Wind Pressure Humidity
00:00 +2°C° 0 mm 7 mps 750 mmHg 87%
01:00 +2°C° 0 mm 7 mps 750 mmHg 87%
02:00 +2°C° 0 mm 7 mps 750 mmHg 86%
03:00 0°C° 0 mm 7 mps 750 mmHg 86%
04:00 0°C° 0 mm 7 mps 750 mmHg 86%
05:00 0°C° 0 mm 7 mps 750 mmHg 86%
06:00 0°C° 0 mm 7 mps 750 mmHg 86%
07:00 0°C° 0 mm 7 mps 751 mmHg 86%
08:00 0°C° 0 mm 7 mps 751 mmHg 86%
09:00 0°C° 0 mm 7 mps 751 mmHg 85%
10:00 0°C° 0 mm 7 mps 752 mmHg 84%
11:00 0°C° 0 mm 7 mps 752 mmHg 84%
12:00 0°C° 0 mm 7 mps 752 mmHg 83%
13:00 0°C° 0 mm 7 mps 752 mmHg 83%
14:00 0°C° 0 mm 7 mps 752 mmHg 82%
15:00 +1°C° 0 mm 6 mps 752 mmHg 82%
16:00 -1°C° 0 mm 6 mps 752 mmHg 83%
17:00 -1°C° 0 mm 6 mps 752 mmHg 83%
18:00 -2°C° 0 mm 6 mps 753 mmHg 84%
19:00 -1°C° 0 mm 5 mps 753 mmHg 85%
20:00 -1°C° 0 mm 5 mps 753 mmHg 86%
21:00 -1°C° 0 mm 5 mps 753 mmHg 87%
22:00 -1°C° 0 mm 4 mps 754 mmHg 87%
23:00 -1°C° 0 mm 4 mps 754 mmHg 88%

1 December, Tuesday

Time Temperature Precipitation Wind Pressure Humidity
00:00 -2°C° 0 mm 4 mps 754 mmHg 88%
01:00 -2°C° 0 mm 4 mps 754 mmHg 87%
02:00 -2°C° 0 mm 4 mps 754 mmHg 87%
03:00 -2°C° 0 mm 4 mps 754 mmHg 87%
04:00 -2°C° 0 mm 4 mps 754 mmHg 87%
05:00 -3°C° 0 mm 4 mps 754 mmHg 87%
06:00 -3°C° 0 mm 4 mps 754 mmHg 86%
07:00 -3°C° 0 mm 4 mps 754 mmHg 86%
08:00 -3°C° 0 mm 4 mps 754 mmHg 86%
09:00 -3°C° 0 mm 4 mps 754 mmHg 83%
10:00 -2°C° 0 mm 4 mps 754 mmHg 81%
11:00 -2°C° 0 mm 4 mps 754 mmHg 78%
12:00 -1°C° 0 mm 3 mps 754 mmHg 78%
13:00 -1°C° 0 mm 3 mps 754 mmHg 77%
14:00 -1°C° 0 mm 3 mps 754 mmHg 76%
15:00 -1°C° 0 mm 3 mps 754 mmHg 76%
16:00 -1°C° 0 mm 3 mps 754 mmHg 76%
17:00 -1°C° 0 mm 3 mps 754 mmHg 75%
18:00 -2°C° 0 mm 4 mps 754 mmHg 73%
19:00 -3°C° 0 mm 4 mps 754 mmHg 71%
20:00 -3°C° 0 mm 4 mps 755 mmHg 69%
21:00 -3°C° 0 mm 4 mps 755 mmHg 68%
22:00 -3°C° 0 mm 4 mps 755 mmHg 67%
23:00 -3°C° 0 mm 4 mps 755 mmHg 66%
Show more